Regional Weather Roundup
Issued by NWS

Home | Current Version | Previous Version | Graphics & Text | Print | Product List | Glossary Off
Versions: 1 2 3 4 5 6 7 8 9 10 11 12 13 14 15 16 17 18 19 20 21 22 23 24 25 26 27 28 29 30 31 32 33 34 35 36 37 38 39 40 41 42 43 44 45 46 47 48 49 50

268
ASUS43 KLSX 201257
RWRMO

WEATHER SUMMARY FOR MISSOURI
NATIONAL WEATHER SERVICE SPRINGFIELD MO
800 AM CDT SUN AUG 20 2017

NOTE: "FAIR" INDICATES FEW OR NO CLOUDS BELOW 12,000 FEET WITH NO
       SIGNIFICANT WEATHER AND/OR OBSTRUCTIONS TO VISIBILITY.
       CURRENT SKY AND/OR WEATHER CONDITIONS ARE NOT AVAILABLE FOR
       CHILLICOTHE AND FARMINGTON.

MOZ001>031-035>038-043-044-053-054-201400-
...NORTHERN AND WESTERN MISSOURI...

CITY           SKY/WX    TMP DP  RH WIND       PRES   REMARKS
KANSAS CTY INT LGT RAIN  69  66  90 E14       29.99S
LEE`S SUMMIT   PTSUNNY   69  67  93 E14       30.01F
ST JOSEPH      LGT RAIN  69  68  96 N15       30.04R FOG
CHILLICOTHE      N/A     69  69 100 E7        30.05S
KIRKSVILLE     TSTM      69  66  90 W6        30.08R

$$
MOZ066>068-077>081-088>096-101>105-201400-
...SOUTHWEST MISSOURI...

CITY           SKY/WX    TMP DP  RH WIND       PRES   REMARKS
SPRINGFIELD    SUNNY     77  75  93 S7        30.04R
JOPLIN         SUNNY     81  76  84 S8        30.01R

$$
MOZ032>034-039>042-045>050-055>058-069>072-201400-
...CENTRAL MISSOURI...

CITY           SKY/WX    TMP DP  RH WIND       PRES   REMARKS
COLUMBIA       NOT AVBL
JEFFERSON CITY CLOUDY    72  72 100 SE5       30.01R
ROLLA          SUNNY     75  73  93 S9        30.05R
SEDALIA        CLOUDY    71  70  96 NE10G22   30.06R
WARRENSBURG    CLOUDY    68  64  88 NE6       30.03S

$$
MOZ051-052-059>065-201400-
...EAST CENTRAL MISSOURI...

CITY           SKY/WX    TMP DP  RH WIND       PRES   REMARKS
ST LOUIS INTL  PTSUNNY   78  71  79 W5        30.02R

$$
MOZ072>076-082>087-097>100-106>115-201400-
...SOUTH CENTRAL AND SOUTHEAST MISSOURI...

CITY           SKY/WX    TMP DP  RH WIND       PRES   REMARKS
CAPE GIRARDEAU SUNNY     74  72  93 SE5       30.03R FOG
POPLAR BLUFF   MOSUNNY   73  73 100 CALM      30.03R FOG
WEST PLAINS    MOSUNNY   78  73  84 SW5       30.07R

$$



USA.gov is the U.S. government's official web portal to all federal, state and local government web resources and services.